Wind_Speed
80 90 98 107 106 106 110 113 105 99 93 87 88 76 70 55 47 40 32 33 37 39 45 58 70 80 90 102 114 129 130 130 126 124 118 114 102 101 98 87 62 74 77 74
82 97 102 106 109 114 121 113 120 105 97 91 87 76 68 55 47 38 30 28 29 32 35 48 63 71 84 95 109 124 131 134 130 128 122 119 110 105 102 90 80 75 82 81
87 95 105 107 115 120 129 123 118 107 96 95 87 77 69 55 47 38 33 25 24 27 32 41 57 66 76 91 104 117 128 137 135 133 128 123 115 109 106 101 84 74 74 87
86 94 100 111 119 124 127 131 128 120 101 93 84 76 66 55 46 38 31 28 22 22 31 39 50 61 69 84 101 113 124 137 139 136 133 127 123 114 110 101 94 90 82 75
88 95 104 115 122 131 129 130 137 122 106 93 88 77 67 59 47 39 31 25 25 21 28 38 47 56 64 77 97 111 119 137 142 138 136 134 129 120 115 110 101 93 88 79
90 95 105 116 124 128 130 135 137 129 110 98 93 80 69 58 49 44 38 30 22 23 25 35 45 53 58 72 90 107 118 135 143 142 140 139 131 125 118 111 104 100 92 87
89 96 107 115 126 131 132 134 140 137 124 100 97 85 71 61 51 42 36 33 27 21 23 31 41 49 55 69 83 102 115 131 143 144 143 143 134 129 124 118 105 100 95 85
88 101 112 120 132 132 136 140 144 145 128 106 103 90 78 65 54 47 38 36 33 28 24 27 36 45 52 66 80 96 112 124 142 144 145 147 139 133 129 122 108 101 94 84
92 96 107 122 132 135 141 143 143 141 128 109 98 92 87 69 58 50 40 35 35 35 30 24 31 41 45 58 76 89 107 117 139 144 149 150 143 139 133 122 112 109 99 91
94 97 106 116 128 135 140 145 146 145 132 115 103 94 86 69 58 52 46 38 33 36 38 29 25 34 40 51 70 83 100 115 134 147 150 152 147 144 136 125 117 106 102 99
92 99 105 114 122 137 145 149 148 152 142 125 107 97 88 73 56 47 40 37 33 33 35 33 23 29 36 47 67 79 95 111 128 143 155 155 152 149 137 128 119 109 105 98
92 99 102 109 123 134 144 151 147 153 149 129 112 103 91 79 65 49 42 37 35 31 30 28 21 25 35 48 64 76 89 107 123 140 157 159 158 152 140 131 119 111 107 104
94 98 104 112 121 132 141 146 146 150 154 130 116 108 95 87 73 58 46 40 34 31 29 25 20 23 34 48 61 73 85 102 120 143 157 161 161 154 141 132 125 117 117 102
92 100 106 115 122 131 145 147 152 156 154 135 122 108 96 89 76 65 55 48 39 29 24 26 19 19 30 46 58 70 83 100 118 142 157 162 161 153 141 130 129 119 113 105
90 96 105 113 118 128 139 146 155 152 145 146 126 112 100 88 78 64 53 46 42 34 22 16 20 18 29 45 55 66 81 96 116 139 158 163 160 151 140 135 125 117 113 105
90 94 102 110 114 122 133 145 152 150 148 145 127 113 105 94 84 75 61 54 49 41 31 20 15 14 24 39 50 63 79 94 114 135 158 163 159 150 139 131 121 116 110 104
94 94 101 110 116 122 130 141 150 152 145 145 124 113 106 98 86 72 66 56 41 34 26 22 12 11 20 34 45 59 75 95 114 136 159 162 156 148 136 129 125 124 111 100
93 95 101 108 116 123 130 138 145 151 147 145 130 114 104 96 91 81 68 48 43 38 28 19 11 6 16 28 41 54 72 92 110 132 157 165 156 145 138 134 132 123 111 97
93 98 99 107 115 121 128 136 142 148 150 149 133 116 104 96 93 85 72 61 50 42 26 18 10 1 9 22 36 51 69 92 110 138 158 161 152 145 135 130 125 120 108 103
92 95 99 106 113 122 128 135 142 143 149 156 143 117 104 91 85 79 66 56 49 41 29 19 12 8 8 20 33 51 69 91 114 137 156 159 151 139 125 121 118 109 106 96
91 94 99 106 111 117 129 133 140 142 145 154 145 119 107 95 83 77 66 56 49 40 28 17 13 10 15 20 34 52 75 92 118 140 159 154 144 127 115 117 109 101 98 91
92 95 98 105 112 117 126 131 139 141 147 153 144 122 107 93 85 77 69 55 49 43 32 19 13 14 17 25 39 59 75 99 123 142 154 146 134 122 114 108 108 104 97 96
90 95 101 106 114 120 124 131 136 144 149 148 139 128 108 93 81 75 68 55 46 42 28 17 16 18 21 30 42 60 86 101 123 138 140 135 126 114 108 105 105 101 96 99
90 93 99 103 112 120 122 129 135 139 140 147 140 136 111 94 81 74 66 55 43 40 27 16 21 24 27 34 46 64 83 100 123 134 136 131 120 115 112 105 104 103 93 89
91 94 98 104 112 118 121 128 133 139 137 146 142 131 117 96 79 72 64 57 41 35 25 14 23 32 39 49 62 83 102 114 122 137 132 127 119 117 115 106 107 106 97 90
88 93 97 105 110 116 120 128 136 140 141 136 144 136 113 93 78 67 62 53 39 28 17 11 27 40 54 71 81 99 111 122 134 131 126 125 124 117 116 113 107 103 96 99
Wind_Direction
7 3 360 360 359 2 3 6 359 350 347 343 338 336 333 327 318 308 290 277 268 252 237 231 232 222 219 214 212 210 204 204 205 204 204 203 197 196 196 196 193 205 218 228
9 10 5 2 359 1 3 2 2 355 350 346 344 341 336 330 325 316 306 288 270 260 241 227 228 224 217 213 211 210 205 202 203 201 201 201 196 198 199 193 194 204 202 219
8 7 6 4 3 2 5 5 2 357 354 349 350 347 340 337 332 324 317 302 278 255 243 227 225 225 216 212 210 210 206 203 201 200 197 197 195 196 196 194 196 194 197 220
7 3 0 2 4 5 5 6 4 359 356 354 352 350 344 341 337 331 323 312 296 258 240 229 224 224 218 211 208 208 206 203 200 199 195 194 196 196 196 196 193 198 202 214
8 3 2 3 4 8 8 7 6 1 358 357 354 354 350 345 340 338 330 321 304 273 240 231 225 223 219 211 208 206 206 202 200 196 193 193 194 194 194 194 194 195 198 208
6 4 0 3 5 7 7 7 7 4 359 1 356 355 354 349 345 339 334 321 299 275 252 233 230 225 218 213 209 206 204 201 199 195 193 192 192 192 193 194 192 197 196 204
6 2 2 2 8 7 7 6 8 6 2 4 359 357 357 354 348 340 329 324 312 293 262 241 232 230 220 212 209 208 203 201 199 195 193 191 191 191 191 194 193 191 195 197
3 5 2 3 7 9 7 7 6 7 4 3 3 0 359 356 349 346 337 325 317 302 279 248 236 231 224 213 209 206 205 201 198 194 191 189 190 190 191 192 193 192 194 205
2 2 0 2 5 8 6 6 5 7 6 1 6 3 1 357 352 346 342 330 319 311 293 264 239 235 227 214 211 206 205 201 197 195 190 188 189 191 189 193 193 191 197 197
3 358 359 356 2 4 6 7 7 6 7 4 4 5 2 1 356 350 345 338 321 306 299 284 254 236 226 214 211 208 204 201 197 193 190 188 188 189 190 190 194 195 193 196
357 356 355 356 356 1 6 9 6 9 5 5 3 4 4 0 359 356 346 334 325 305 295 290 267 239 220 211 209 207 203 202 198 196 191 187 188 188 188 191 190 190 195 194
351 359 356 357 358 360 3 8 6 6 6 5 3 3 6 0 358 359 347 340 333 318 301 291 269 241 217 209 208 205 202 200 197 197 189 187 187 187 187 189 189 191 197 197
351 353 358 357 359 359 0 6 7 6 6 5 4 1 5 2 359 357 359 348 332 320 306 295 273 238 218 209 207 203 200 198 195 192 190 188 186 186 186 187 186 192 198 201
353 353 354 354 357 358 1 1 7 4 5 6 3 2 3 2 2 360 358 350 344 331 307 297 287 246 214 209 207 202 199 196 193 190 190 187 186 185 186 187 188 193 196 198
358 355 354 355 355 358 1 1 3 5 7 4 3 0 1 2 3 359 359 355 348 346 338 307 285 242 211 208 208 200 198 193 193 191 188 187 185 185 184 185 187 192 195 198
356 354 353 355 355 357 1 2 1 7 7 4 4 1 359 1 4 0 1 4 356 344 334 323 296 255 212 206 205 199 196 192 192 190 187 184 183 181 183 184 187 189 192 188
357 355 356 356 358 359 2 2 3 6 5 5 5 3 1 0 0 1 3 4 359 354 349 339 320 264 212 207 203 197 195 190 189 188 187 183 180 179 181 185 184 188 191 192
353 355 355 354 358 1 1 2 4 3 6 5 5 4 2 1 360 3 360 5 10 7 358 359 345 258 213 206 199 193 191 189 188 188 185 183 178 179 182 182 186 188 189 192
350 353 353 353 356 359 360 1 4 4 5 5 5 4 3 5 2 360 0 3 8 7 10 14 22 350 200 198 193 190 186 185 187 187 184 181 178 179 185 187 189 190 195 196
349 350 351 353 354 359 360 358 1 4 3 5 4 4 2 6 6 0 0 3 8 6 6 22 48 101 166 187 186 182 183 179 186 186 183 181 179 182 187 188 191 193 196 201
349 350 351 351 352 356 359 355 357 2 4 1 1 2 3 3 5 4 3 4 9 13 9 25 58 105 140 171 175 175 177 180 181 183 180 180 180 183 185 186 190 194 192 194
345 349 348 350 350 355 355 355 358 2 360 1 1 2 2 3 7 4 6 3 9 10 5 26 66 109 140 160 169 172 175 178 181 183 180 179 181 181 182 185 185 191 192 197
343 346 347 346 347 352 354 355 356 360 358 0 3 3 1 3 8 5 7 4 7 13 6 43 83 113 138 151 166 173 175 180 181 181 178 181 181 179 182 184 189 189 196 202
343 344 346 346 348 349 351 351 354 355 358 358 2 1 360 1 6 6 7 5 8 14 12 59 96 113 132 147 162 170 173 178 176 179 178 178 178 179 182 184 189 192 196 200
341 343 344 342 345 347 348 350 350 351 354 357 357 358 359 358 4 9 7 4 9 16 12 85 109 120 131 144 155 163 168 169 175 178 178 177 178 182 184 188 189 193 198 199
337 340 340 341 345 343 346 347 349 348 353 356 356 354 358 356 0 9 6 6 5 19 7 115 124 137 146 150 158 163 168 172 178 178 178 181 182 185 186 190 193 198 201 204
Height
10658 10639 10622 10602 10571 10541 10513 10485 10457 10425 10401 10373 10343 10321 10301 10287 10275 10265 10258 10253 10252 10255 10258 10263 10271 10283 10302 10325 10347 10369 10396 10427 10461 10498 10531 10561 10586 10607 10624 10643 10654 10673 10684 10691
10653 10632 10612 10590 10563 10527 10499 10466 10439 10410 10383 10359 10330 10308 10289 10273 10262 10251 10244 10239 10238 10239 10242 10246 10252 10264 10280 10302 10323 10346 10371 10399 10434 10470 10505 10537 10563 10585 10604 10623 10638 10654 10673 10677
10638 10620 10602 10580 10552 10518 10484 10453 10427 10400 10376 10342 10317 10297 10275 10263 10249 10240 10233 10229 10227 10227 10228 10232 10236 10246 10261 10277 10300 10321 10348 10374 10406 10443 10480 10512 10541 10564 10585 10605 10625 10645 10655 10661
10631 10613 10591 10572 10539 10506 10475 10444 10413 10386 10361 10338 10316 10289 10270 10255 10241 10230 10224 10218 10216 10216 10216 10219 10223 10231 10243 10258 10278 10301 10326 10352 10379 10416 10453 10486 10517 10537 10561 10584 10605 10624 10639 10650
10617 10603 10582 10563 10532 10497 10471 10444 10410 10379 10354 10329 10303 10281 10262 10244 10234 10223 10215 10210 10207 10206 10206 10207 10210 10217 10228 10242 10257 10277 10304 10333 10360 10393 10430 10463 10494 10516 10540 10566 10586 10604 10622 10639
10614 10593 10575 10553 10525 10493 10468 10441 10412 10381 10348 10322 10295 10275 10256 10240 10227 10215 10205 10201 10198 10195 10195 10196 10199 10205 10214 10228 10241 10257 10280 10312 10342 10372 10407 10441 10471 10496 10523 10549 10571 10590 10605 10625
10607 10587 10572 10546 10521 10488 10460 10433 10406 10369 10331 10318 10290 10268 10250 10234 10222 10213 10202 10192 10187 10186 10184 10185 10188 10193 10200 10210 10224 10241 10259 10286 10320 10352 10389 10422 10451 10480 10503 10530 10553 10573 10594 10609
10594 10576 10553 10531 10507 10483 10453 10417 10386 10358 10332 10307 10281 10263 10248 10230 10216 10204 10194 10186 10179 10174 10173 10174 10176 10178 10185 10196 10207 10224 10244 10266 10300 10335 10368 10403 10433 10463 10486 10513 10539 10560 10580 10598
10583 10566 10546 10525 10497 10474 10445 10418 10387 10366 10345 10310 10294 10266 10244 10225 10211 10199 10191 10181 10173 10166 10162 10164 10164 10166 10173 10182 10193 10208 10230 10252 10281 10317 10348 10383 10418 10447 10473 10497 10522 10547 10568 10583
10579 10561 10541 10518 10496 10477 10449 10416 10383 10350 10328 10308 10284 10266 10246 10228 10212 10197 10187 10177 10168 10159 10152 10152 10154 10155 10159 10169 10180 10195 10216 10236 10263 10296 10334 10364 10399 10431 10456 10483 10507 10532 10554 10572
10575 10554 10533 10514 10489 10463 10438 10406 10380 10354 10330 10302 10281 10263 10244 10224 10211 10197 10185 10175 10165 10153 10144 10140 10141 10143 10147 10154 10165 10180 10197 10223 10250 10276 10314 10348 10382 10414 10441 10469 10495 10525 10543 10562
10566 10549 10530 10511 10488 10462 10437 10407 10383 10353 10323 10298 10275 10261 10239 10222 10205 10191 10177 10167 10155 10144 10138 10130 10129 10131 10136 10141 10150 10164 10182 10206 10237 10269 10299 10333 10364 10399 10428 10458 10487 10514 10538 10558
10558 10540 10524 10503 10486 10460 10433 10414 10383 10354 10329 10299 10278 10256 10232 10215 10198 10181 10166 10155 10144 10135 10127 10122 10120 10120 10125 10131 10138 10150 10169 10193 10223 10255 10290 10319 10354 10387 10421 10449 10479 10504 10526 10546
10558 10535 10512 10491 10472 10450 10423 10397 10377 10352 10327 10299 10275 10258 10236 10212 10196 10180 10164 10147 10135 10127 10120 10114 10111 10113 10115 10122 10129 10141 10158 10181 10209 10243 10279 10311 10348 10382 10410 10440 10468 10497 10519 10539
10557 10538 10517 10496 10476 10457 10435 10404 10379 10358 10331 10303 10280 10252 10232 10213 10195 10176 10161 10148 10135 10120 10113 10109 10106 10104 10107 10112 10123 10134 10150 10173 10200 10234 10270 10308 10340 10370 10401 10432 10462 10490 10513 10530
10553 10536 10520 10503 10484 10464 10442 10412 10382 10359 10336 10305 10282 10253 10226 10205 10188 10172 10158 10142 10130 10120 10111 10105 10100 10100 10102 10107 10118 10131 10146 10168 10197 10229 10263 10298 10329 10366 10401 10428 10457 10484 10504 10523
10549 10534 10517 10497 10478 10459 10444 10416 10388 10361 10334 10314 10288 10261 10237 10209 10193 10175 10156 10144 10135 10122 10112 10104 10100 10099 10099 10106 10115 10129 10145 10167 10193 10226 10261 10298 10329 10366 10397 10423 10451 10474 10499 10518
10544 10529 10512 10497 10477 10460 10437 10422 10398 10368 10349 10316 10291 10264 10243 10221 10188 10171 10161 10147 10131 10122 10110 10104 10102 10101 10101 10107 10116 10130 10147 10168 10194 10226 10263 10298 10330 10364 10391 10418 10446 10470 10492 10513
10538 10521 10507 10490 10475 10460 10439 10422 10403 10374 10350 10326 10302 10276 10249 10229 10200 10176 10160 10143 10133 10125 10117 10107 10103 10105 10106 10110 10119 10132 10149 10172 10201 10237 10273 10306 10334 10368 10394 10420 10451 10471 10491 10510
10532 10516 10500 10485 10471 10452 10436 10415 10400 10380 10354 10326 10300 10281 10261 10246 10224 10200 10180 10163 10148 10131 10125 10115 10108 10107 10112 10117 10125 10137 10156 10179 10209 10246 10283 10315 10345 10372 10401 10426 10451 10473 10491 10505
10529 10514 10499 10483 10471 10456 10437 10418 10396 10380 10358 10333 10311 10286 10266 10248 10224 10204 10190 10171 10154 10140 10133 10127 10118 10117 10118 10127 10136 10149 10167 10190 10217 10254 10290 10326 10356 10382 10404 10430 10451 10470 10488 10504
10521 10508 10494 10483 10469 10453 10434 10417 10398 10381 10359 10339 10314 10296 10274 10256 10235 10211 10199 10183 10169 10157 10146 10141 10133 10130 10132 10138 10149 10162 10182 10198 10223 10265 10307 10339 10360 10379 10401 10427 10448 10466 10485 10500
10516 10501 10486 10473 10459 10443 10430 10417 10399 10381 10364 10349 10325 10304 10285 10268 10250 10227 10212 10197 10184 10173 10164 10156 10149 10146 10150 10155 10167 10181 10201 10231 10261 10288 10327 10343 10360 10384 10407 10431 10452 10471 10484 10493
10512 10498 10483 10473 10460 10442 10429 10415 10401 10387 10370 10349 10336 10316 10296 10279 10261 10241 10225 10211 10199 10189 10184 10176 10168 10166 10170 10178 10191 10207 10226 10252 10280 10307 10320 10337 10365 10388 10411 10431 10451 10467 10477 10490
10503 10493 10481 10469 10454 10443 10429 10417 10403 10387 10374 10352 10334 10320 10302 10284 10273 10257 10239 10225 10216 10207 10204 10197 10190 10189 10194 10203 10218 10237 10256 10278 10298 10311 10328 10349 10369 10396 10413 10430 10445 10459 10471 10484
10497 10486 10474 10464 10453 10440 10426 10415 10401 10387 10374 10360 10342 10319 10301 10292 10279 10269 10253 10242 10233 10224 10221 10217 10213 10214 10217 10222 10235 10253 10277 10292 10304 10328 10336 10358 10373 10391 10406 10423 10439 10450 10467 10479